Location: Unspecified
(33.6682°S, 0.0000°E)
Time: 04:43:33
(UTC+00:00)

Tiros 1 despin weight - Pass Details

Date: 21 June 2019
Orbit: 594 x 642 km, 48.2° (Epoch: 21 July)

Event Time Altitude Azimuth Distance (km) Brightness Sun altitude
Rises 14:59:04 0° 230° (SW) 2,969 ? 19.0°
Reaches altitude 10° 15:02:22 10° 206° (SSW) 2,060 ? 18.5°
Maximum altitude 15:05:07 15° 171° (S) 1,744 ? 18.2°
Drops below altitude 10° 15:07:52 10° 135° (SE) 2,055 ? 17.8°
Sets 15:11:10 0° 111° (ESE) 2,958 ? 17.3°
